Find Kuiper-00120

NORAD ID: 65762 Int'l Des: 2025-217 Owner: KUIP Country: US Constellation: amazon-leo operational
LEOCIRCULAR

当前视图

正在加载3D地球...

About Kuiper-00120

Kuiper-00120 (NORAD 65762) is a amazon-leo constellation satellite launched Sep 25, 2025 by KUIP of US. It operates in LEO, CIRCULAR orbit with a mass of 490.00 kg.

即将过境

Passes for default location (London). Set your location on the main map for personalized predictions.

高度历史

Loading altitude history...

两行轨道根数

1 65762U 25217A 26263.29347961 .00001613 00000-0 24061-3 0 9990
2 65762 51.9003 272.5100 0000520 63.2717 296.8299 14.79928704 53550
Epoch: Sep 20, 2026 • Age: 19 hours

当前状态

高度 630.2 km
远地点 / 近地点 N/A
速度 7.54 km/s
星下点 2.03°N, 62.5°E
发射日期 Sep 25, 2025
运行时间 0.9 years
类型 internet

技术详情

分类 Payload
质量 490.00 kg
形状 ? Box + 2 pan
制造商 KUIP
平台类型 Kuiper
阶段状态 In Orbit
所有者/国家 KUIP/US

Most Searched